EW7146 Weather Reports


time (UTC)temp
F
wind
direction
speed
knots
gust
knots
rain 1hr
in
rain 24hr
in
rain mn
in
humidity
%
barometer
mb
20260507015357 73 307 0.9 9.6 0.00 0.00 0.00 30 1024.1
20260507014633 73 298 1.7 9.6 0.00 0.00 0.00 30 1024.0
20260507014132 74 344 1.7 13.0 0.00 0.00 0.00 29 1024.0
20260507013632 74 271 4.3 13.0 0.00 0.00 0.00 28 1024.0
20260507013132 74 51 1.7 11.3 0.00 0.00 0.00 29 1024.0
20260507012633 74 290 2.6 11.3 0.00 0.00 0.00 28 1024.0
20260507012132 74 340 1.7 10.4 0.00 0.00 0.00 28 1023.9
20260507011635 74 38 1.7 10.4 0.00 0.00 0.00 29 1024.0
20260507011132 75 272 1.7 8.7 0.00 0.00 0.00 28 1024.0
20260507010633 76 299 0.9 8.7 0.00 0.00 0.00 27 1024.0
20260507010132 76 286 2.6 8.7 0.00 0.00 0.00 27 1023.9
20260507005849 76 313 0.9 9.6 0.00 0.00 0.00 28 1023.9
20260507005131 75 268 1.7 9.6 0.00 0.00 0.00 28 1023.8
20260507004631 75 296 2.6 11.3 0.00 0.00 0.00 28 1023.7
20260507004358 75 61 4.3 11.3 0.00 0.00 0.00 27 1023.8
20260507003631 75 296 3.5 11.3 0.00 0.00 0.00 28 1023.8
20260507003132 75 305 3.5 9.6 0.00 0.00 0.00 28 1023.7
20260507002630 76 334 1.7 9.6 0.00 0.00 0.00 27 1023.7
20260507002139 77 330 3.5 8.7 0.00 0.00 0.00 27 1023.6
20260507001630 78 323 2.6 8.7 0.00 0.00 0.00 26 1023.7
20260507001131 78 51 2.6 8.7 0.00 0.00 0.00 26 1023.5
20260507000631 78 344 1.7 8.7 0.00 0.00 0.00 26 1023.4
20260507000346 78 288 3.5 8.7 0.00 0.00 0.00 27 1023.3
20260506235631 77 282 2.6 13.0 0.00 0.00 0.00 26 1023.3
20260506235130 77 278 3.5 13.0 0.00 0.00 0.00 26 1023.2
20260506234631 77 298 2.6 6.1 0.00 0.00 0.00 27 1023.3
20260506234130 77 285 3.5 6.1 0.00 0.00 0.00 27 1023.4
20260506233632 77 295 1.7 6.1 0.00 0.00 0.00 29 1023.3
20260506233129 77 16 1.7 3.5 0.00 0.00 0.00 27 1023.3
20260506232631 77 279 0.0 6.1 0.00 0.00 0.00 29 1023.3
20260506232130 78 290 1.7 6.1 0.00 0.00 0.00 29 1023.3
20260506231628 78 305 0.9 4.3 0.00 0.00 0.00 28 1023.3
20260506231130 78 353 0.0 2.6 0.00 0.00 0.00 30 1023.2
20260506230629 78 227 0.0 7.8 0.00 0.00 0.00 29 1023.3
20260506230130 77 317 0.0 7.8 0.00 0.00 0.00 30 1023.4
20260506225851 78 72 0.9 5.2 0.00 0.00 0.00 29 1023.4
20260506225130 78 290 0.9 5.2 0.00 0.00 0.00 29 1023.5
20260506224629 77 317 0.9 5.2 0.00 0.00 0.00 28 1023.4
20260506224349 78 313 1.7 9.6 0.00 0.00 0.00 28 1023.5
20260506223629 78 278 1.7 9.6 0.00 0.00 0.00 28 1023.5
20260506223354 78 312 1.7 9.6 0.00 0.00 0.00 28 1023.5
20260506222630 79 248 0.9 6.1 0.00 0.00 0.00 29 1023.6
20260506222127 79 333 1.7 7.8 0.00 0.00 0.00 29 1023.5
20260506221629 79 240 0.9 7.8 0.00 0.00 0.00 29 1023.6
20260506221128 79 283 0.9 9.6 0.00 0.00 0.00 29 1023.5
20260506220627 80 1 1.7 9.6 0.00 0.00 0.00 29 1023.5
20260506220128 80 296 2.6 7.8 0.00 0.00 0.00 28 1023.6
20260506215628 80 305 0.9 4.3 0.00 0.00 0.00 29 1023.6
20260506215345 81 317 1.7 4.3 0.00 0.00 0.00 28 1023.5
20260506214627 81 65 1.7 4.3 0.00 0.00 0.00 29 1023.7
20260506214129 81 285 0.9 11.3 0.00 0.00 0.00 28 1023.5
20260506213627 81 326 1.7 13.9 0.00 0.00 0.00 27 1023.4
20260506213128 81 38 3.5 13.9 0.00 0.00 0.00 27 1023.5
20260506212627 81 0 1.7 6.1 0.00 0.00 0.00 29 1023.5
20260506212127 81 31 1.7 6.1 0.00 0.00 0.00 28 1023.6
20260506211849 82 354 1.7 4.3 0.00 0.00 0.00 28 1023.6
20260506211126 82 131 1.7 11.3 0.00 0.00 0.00 28 1023.5
20260506210627 81 286 1.7 11.3 0.00 0.00 0.00 27 1023.4
20260506210126 82 288 2.6 5.2 0.00 0.00 0.00 29 1023.4
20260506205627 82 248 0.9 7.8 0.00 0.00 0.00 27 1023.6
20260506205126 81 268 1.7 10.4 0.00 0.00 0.00 27 1023.5
20260506204851 82 353 2.6 10.4 0.00 0.00 0.00 27 1023.6
20260506204125 82 272 2.6 8.7 0.00 0.00 0.00 27 1023.6
20260506203626 81 295 0.9 10.4 0.00 0.00 0.00 30 1023.6
20260506203126 81 262 1.7 10.4 0.00 0.00 0.00 28 1023.6
20260506202624 82 240 1.7 5.2 0.00 0.00 0.00 28 1023.6
20260506202126 82 298 2.6 8.7 0.00 0.00 0.00 28 1023.6
20260506201625 82 18 2.6 8.7 0.00 0.00 0.00 27 1023.6
20260506201130 82 295 1.7 5.2 0.00 0.00 0.00 30 1023.8
20260506200625 82 286 1.7 6.1 0.00 0.00 0.00 29 1023.8
20260506200350 81 31 2.6 6.1 0.00 0.00 0.00 29 1023.8
20260506195624 81 17 2.6 8.7 0.00 0.00 0.00 31 1023.8
20260506195125 80 293 1.7 8.7 0.00 0.00 0.00 29 1024.0
20260506194625 80 107 2.6 9.6 0.00 0.00 0.00 30 1024.0
20260506194124 79 251 1.7 9.6 0.00 0.00 0.00 31 1024.1
20260506193625 79 282 4.3 9.6 0.00 0.00 0.00 31 1023.9
20260506193124 80 285 2.6 5.2 0.00 0.00 0.00 31 1023.9
20260506192625 79 275 1.7 10.4 0.00 0.00 0.00 32 1024.1
20260506192124 79 288 4.3 13.0 0.00 0.00 0.00 30 1024.0
20260506191623 80 289 4.3 13.0 0.00 0.00 0.00 29 1024.0
20260506191123 80 341 1.7 9.6 0.00 0.00 0.00 31 1024.0
20260506190623 80 20 0.9 10.4 0.00 0.00 0.00 31 1024.0
20260506190124 80 314 3.5 12.2 0.00 0.00 0.00 31 1024.1
20260506185624 80 290 4.3 12.2 0.00 0.00 0.00 28 1023.9
20260506185124 81 292 1.7 7.8 0.00 0.00 0.00 31 1024.0
20260506184847 80 248 1.7 7.8 0.00 0.00 0.00 31 1024.0
20260506184125 80 278 1.7 5.2 0.00 0.00 0.00 31 1024.0
20260506183623 80 283 1.7 4.3 0.00 0.00 0.00 33 1023.9
20260506183611 79 321 1.7 7.8 0.00 0.00 0.00 32 1023.9
20260506182623 79 341 1.7 7.8 0.00 0.00 0.00 32 1024.0
20260506182122 80 333 1.7 8.7 0.00 0.00 0.00 32 1024.0
20260506181623 79 293 0.9 8.7 0.00 0.00 0.00 31 1024.0
20260506181122 79 250 1.7 10.4 0.00 0.00 0.00 30 1024.1
20260506180623 79 27 1.7 10.4 0.00 0.00 0.00 31 1024.0
20260506180122 80 303 1.7 7.8 0.00 0.00 0.00 30 1024.1
20260506175624 80 289 1.7 9.6 0.00 0.00 0.00 30 1024.1
20260506175342 80 20 1.7 9.6 0.00 0.00 0.00 31 1024.1
20260506174621 79 28 1.7 10.4 0.00 0.00 0.00 31 1024.0
20260506174604 79 272 1.7 10.4 0.00 0.00 0.00 29 1024.1
20260506173621 79 255 3.5 8.7 0.00 0.00 0.00 31 1024.2
20260506173122 79 309 1.7 7.8 0.00 0.00 0.00 32 1024.1
20260506172621 79 285 0.9 7.8 0.00 0.00 0.00 32 1024.1
20260506172123 79 257 2.6 13.0 0.00 0.00 0.00 31 1024.0
20260506171843 78 25 1.7 13.0 0.00 0.00 0.00 31 1024.0
20260506171121 78 313 1.7 7.8 0.00 0.00 0.00 32 1024.1
20260506170842 77 276 1.7 9.6 0.00 0.00 0.00 33 1024.1
20260506170121 77 268 3.5 11.3 0.00 0.00 0.00 32 1024.1
20260506165618 76 321 4.3 11.3 0.00 0.00 0.00 32 1024.1
20260506165121 76 272 0.9 11.3 0.00 0.00 0.00 34 1024.1
20260506164853 76 44 0.9 11.3 0.00 0.00 0.00 36 1024.2
20260506164120 75 303 1.7 9.6 0.00 0.00 0.00 36 1024.4
20260506163622 75 282 1.7 12.2 0.00 0.00 0.00 35 1024.5
20260506163119 75 272 3.5 12.2 0.00 0.00 0.00 35 1024.5
20260506162620 74 32 2.6 12.2 0.00 0.00 0.00 37 1024.5
20260506162341 74 13 4.3 12.2 0.00 0.00 0.00 37 1024.6
20260506161620 74 306 1.7 10.4 0.00 0.00 0.00 38 1024.7
20260506161117 74 302 0.9 10.4 0.00 0.00 0.00 38 1024.7
20260506160620 73 271 0.9 10.4 0.00 0.00 0.00 38 1024.8
20260506160121 73 63 1.7 5.2 0.00 0.00 0.00 41 1024.8
20260506155620 73 265 1.7 5.2 0.00 0.00 0.00 41 1024.7
20260506155121 72 18 0.0 5.2 0.00 0.00 0.00 43 1024.8
20260506154618 71 293 0.0 7.8 0.00 0.00 0.00 45 1024.9
20260506154118 69 251 1.7 7.8 0.00 0.00 0.00 42 1024.8
20260506153619 68 286 1.7 4.3 0.00 0.00 0.00 46 1025.1
20260506153119 68 76 0.9 2.6 0.00 0.00 0.00 47 1025.1
20260506152619 67 96 1.7 4.3 0.00 0.00 0.00 47 1025.1
20260506152119 67 49 1.7 4.3 0.00 0.00 0.00 46 1025.3
20260506151619 66 100 1.7 4.3 0.00 0.00 0.00 48 1025.2
20260506151118 65 106 2.6 4.3 0.00 0.00 0.00 52 1025.2
20260506150619 63 18 0.0 6.1 0.00 0.00 0.00 52 1025.3
20260506150118 62 55 3.5 6.1 0.00 0.00 0.00 53 1025.3
20260506145618 62 63 1.7 6.1 0.00 0.00 0.00 54 1025.5
20260506145118 61 99 3.5 6.1 0.00 0.00 0.00 54 1025.4
20260506144619 60 117 0.9 4.3 0.00 0.00 0.00 56 1025.6
20260506144116 59 72 0.0 4.3 0.00 0.00 0.00 57 1025.6
20260506143844 58 106 0.9 3.5 0.00 0.00 0.00 58 1025.6
20260506143119 57 65 1.7 4.3 0.00 0.00 0.00 59 1025.5
20260506142618 56 109 1.7 4.3 0.00 0.00 0.00 60 1025.6
20260506142341 55 55 0.0 2.6 0.00 0.00 0.00 64 1025.7
20260506141616 54 103 0.9 2.6 0.00 0.00 0.00 65 1025.6
20260506141116 54 100 0.9 2.6 0.00 0.00 0.00 65 1025.6
20260506140617 53 61 0.0 1.7 0.00 0.00 0.00 66 1025.7
20260506140117 53 93 0.0 1.7 0.00 0.00 0.00 68 1025.7
20260506135618 52 113 0.0 2.6 0.00 0.00 0.00 68 1025.6
20260506135116 52 82 0.9 2.6 0.00 0.00 0.00 68 1025.6
20260506134845 52 104 0.9 2.6 0.00 0.00 0.00 66 1025.6
20260506134117 52 34 0.9 2.6 0.00 0.00 0.00 68 1025.6
20260506133617 51 285 0.0 2.6 0.00 0.00 0.00 68 1025.7
20260506133348 51 100 0.0 2.6 0.00 0.00 0.00 69 1025.6
20260506132842 50 72 0.0 2.6 0.00 0.00 0.00 69 1025.6
20260506132116 50 96 0.9 4.3 0.00 0.00 0.00 69 1025.5
20260506131841 50 164 0.0 4.3 0.00 0.00 0.00 68 1025.6
20260506131117 49 86 0.9 3.5 0.00 0.00 0.00 70 1025.4
20260506130615 49 111 0.0 3.5 0.00 0.00 0.00 71 1025.6
20260506130117 49 54 1.7 3.5 0.00 0.00 0.00 70 1025.6
20260506125615 49 259 0.0 3.5 0.00 0.00 0.00 70 1025.6
20260506125340 49 24 0.9 3.5 0.00 0.00 0.00 68 1025.5
20260506124620 50 127 1.7 3.5 0.00 0.00 0.00 67 1025.5
20260506124114 49 127 0.0 2.6 0.00 0.00 0.00 67 1025.5
20260506124100 49 121 0.0 3.5 0.00 0.00 0.00 67 1025.4
20260506123111 49 135 0.0 3.5 0.00 0.00 0.00 68 1025.4
20260506122613 49 130 0.0 1.7 0.00 0.00 0.00 67 1025.4
20260506122114 50 172 0.0 2.6 0.00 0.00 0.00 66 1025.3
20260506121616 50 144 0.9 2.6 0.00 0.00 0.00 65 1025.3
20260506121114 50 54 0.9 1.7 0.00 0.00 0.00 65 1025.3
20260506120615 50 131 0.0 2.6 0.00 0.00 0.00 64 1025.2
20260506120340 51 149 2.6 2.6 0.00 0.00 0.00 64 1025.2
20260506115610 51 116 0.0 2.6 0.00 0.00 0.00 63 1025.2
20260506115112 51 106 0.9 4.3 0.00 0.00 0.00 63 1025.2
20260506114610 51 279 1.7 4.3 0.00 0.00 0.00 63 1025.2
20260506114112 51 305 0.0 4.3 0.00 0.00 0.00 64 1025.3
20260506113613 51 204 1.7 4.3 0.00 0.00 0.00 64 1025.2
20260506113113 50 199 0.0 2.6 0.00 0.00 0.00 65 1025.2
20260506112613 50 127 0.0 2.6 0.00 0.00 0.00 65 1025.2
20260506112109 51 158 0.0 3.5 0.00 0.00 0.00 66 1025.3
20260506111610 51 279 0.9 3.5 0.00 0.00 0.00 64 1025.3
20260506111110 51 219 0.0 3.5 0.00 0.00 0.00 63 1025.3
20260506110611 52 158 1.7 3.5 0.00 0.00 0.00 62 1025.2
20260506110109 52 240 0.0 2.6 0.00 0.00 0.00 61 1025.3
20260506105610 53 121 0.9 3.5 0.00 0.00 0.00 60 1025.1
20260506105112 53 145 1.7 5.2 0.00 0.00 0.00 60 1025.2
20260506104612 53 137 3.5 5.2 0.00 0.00 0.00 62 1025.1
20260506104113 52 104 1.7 2.6 0.00 0.00 0.00 61 1025.2
20260506103612 52 58 0.9 3.5 0.00 0.00 0.00 62 1025.2
20260506103112 53 116 3.5 3.5 0.00 0.00 0.00 61 1025.2
20260506103102 53 329 0.0 2.6 0.00 0.00 0.00 60 1025.2
20260506102113 53 152 0.9 2.6 0.00 0.00 0.00 59 1025.1
20260506101612 54 213 0.0 2.6 0.00 0.00 0.00 58 1025.1
20260506101113 54 186 1.7 1.7 0.00 0.00 0.00 58 1025.1
20260506100611 54 240 0.0 1.7 0.00 0.00 0.00 59 1025.1
20260506100111 54 216 0.0 2.6 0.00 0.00 0.00 58 1025.0
20260506095832 55 162 1.7 2.6 0.00 0.00 0.00 58 1025.0
20260506095112 54 238 0.9 1.7 0.00 0.00 0.00 58 1025.1
20260506094611 55 217 0.9 1.7 0.00 0.00 0.00 58 1025.0
20260506094111 55 202 0.0 1.7 0.00 0.00 0.00 57 1025.0
20260506093611 56 228 0.0 1.7 0.00 0.00 0.00 56 1025.0
20260506093110 56 200 0.9 2.6 0.00 0.00 0.00 55 1025.0
20260506092612 57 278 0.0 2.6 0.00 0.00 0.00 54 1025.1
20260506092110 57 276 0.0 3.5 0.00 0.00 0.00 54 1025.1
20260506091610 57 275 1.7 3.5 0.00 0.00 0.00 54 1025.1
20260506091109 57 314 1.7 3.5 0.00 0.00 0.00 53 1025.1
20260506090610 58 144 0.9 4.3 0.00 0.00 0.00 52 1024.9
20260506090111 58 151 1.7 4.3 0.00 0.00 0.00 52 1024.9
20260506085610 58 251 1.7 3.5 0.00 0.00 0.00 52 1024.9
20260506085110 59 217 0.9 4.3 0.00 0.00 0.00 53 1025.0
20260506084610 58 217 2.6 4.3 0.00 0.00 0.00 53 1024.9
20260506084343 57 135 2.6 4.3 0.00 0.00 0.00 55 1024.8
20260506083610 57 182 0.9 3.5 0.00 0.00 0.00 55 1024.9
20260506083109 57 154 1.7 3.5 0.00 0.00 0.00 56 1024.8
20260506082609 58 144 1.7 3.5 0.00 0.00 0.00 55 1024.8
20260506082329 58 199 0.9 3.5 0.00 0.00 0.00 54 1024.8
20260506081610 59 144 1.7 3.5 0.00 0.00 0.00 53 1024.7
20260506081109 60 134 0.0 3.5 0.00 0.00 0.00 52 1024.6
20260506080610 61 151 0.0 3.5 0.00 0.00 0.00 50 1024.6
20260506080108 62 107 0.9 3.5 0.00 0.00 0.00 49 1024.6
20260506073109 67 282 0.9 7.8 0.00 0.00 0.00 44 1024.4
20260506072608 67 269 2.6 7.8 0.00 0.00 0.00 44 1024.2
20260506072109 67 268 1.7 7.8 0.00 0.00 0.00 44 1024.2
20260506071607 66 300 2.6 11.3 0.00 0.00 0.00 44 1024.2
20260506071107 66 300 2.6 11.3 0.00 0.00 0.00 45 1024.4
20260506070834 66 265 2.6 8.7 0.00 0.00 0.00 45 1024.4
20260506070107 66 276 3.5 5.2 0.00 0.00 0.00 46 1024.2
20260506062107 65 268 0.0 2.6 0.00 0.00 0.00 47 1024.2
20260506061606 65 279 0.9 2.6 0.00 0.00 0.00 47 1024.1
20260506061107 64 226 0.0 2.6 0.00 0.00 0.00 48 1024.0
20260506060606 65 258 0.0 0.9 0.00 0.00 0.00 47 1024.0
20260506060107 66 128 0.0 0.9 0.00 0.00 0.00 46 1024.0
20260506051105 71 293 1.7 5.2 0.00 0.00 0.00 39 1023.5
20260506050606 71 275 0.9 5.2 0.00 0.00 0.00 39 1023.5
20260506050332 71 286 0.9 4.3 0.00 0.00 0.00 39 1023.4
20260506045104 71 300 1.7 8.7 0.00 0.00 0.00 38 1023.3
20260506044605 71 288 1.7 7.8 0.00 0.00 0.00 38 1023.3
20260506044104 72 278 1.7 7.8 0.00 0.00 0.00 38 1023.3
20260506043604 72 271 2.6 6.1 0.00 0.00 0.00 37 1023.2
20260506043105 72 338 2.6 5.2 0.00 0.00 0.00 37 1023.1
20260506042604 72 258 0.9 6.1 0.00 0.00 0.00 37 1023.1
20260506042105 73 269 2.6 8.7 0.00 0.00 0.00 36 1023.1
20260506041604 73 276 3.5 8.7 0.00 0.00 0.00 36 1023.0
20260506041103 73 262 3.5 8.7 0.00 0.00 0.00 36 1022.9
20260506040603 73 275 4.3 8.7 0.00 0.00 0.00 36 1022.9
20260506040104 73 265 4.3 9.6 0.00 0.00 0.00 35 1022.7
20260506035604 73 261 3.5 9.6 0.00 0.00 0.00 35 1022.6
20260506035106 74 283 2.6 9.6 0.00 0.00 0.00 35 1022.5
20260506035059 73 278 3.5 6.1 0.00 0.00 0.00 35 1022.4
20260506034103 74 285 2.6 6.1 0.00 0.00 0.00 34 1022.4
20260506033604 74 295 2.6 9.6 0.00 0.00 0.00 34 1022.3
20260506033102 74 275 2.6 9.6 0.00 0.00 0.00 33 1022.2
20260506032603 75 279 2.6 9.6 0.00 0.00 0.00 33 1022.0
20260506032103 75 285 3.5 9.6 0.00 0.00 0.00 33 1022.0
20260506031602 75 285 4.3 10.4 0.00 0.00 0.00 32 1021.9
20260506031321 75 268 3.5 10.4 0.00 0.00 0.00 32 1021.9
20260506030601 75 285 3.5 12.2 0.00 0.00 0.00 32 1021.7
20260506030103 75 259 5.2 12.2 0.00 0.00 0.00 32 1021.6
20260506025601 76 292 1.7 8.7 0.00 0.00 0.00 32 1021.6
20260506025104 76 285 3.5 7.8 0.00 0.00 0.00 31 1021.5
20260506024829 76 265 0.9 6.1 0.00 0.00 0.00 31 1021.5
20260506024322 77 289 2.6 7.8 0.00 0.00 0.00 30 1021.5
20260506023602 77 288 3.5 7.8 0.00 0.00 0.00 30 1021.4
20260506023101 78 252 1.7 11.3 0.00 0.00 0.00 29 1021.5
20260506022602 79 289 2.6 11.3 0.00 0.00 0.00 28 1021.4
20260506022100 80 274 1.7 7.8 0.00 0.00 0.00 27 1021.5
20260506021602 80 243 1.7 11.3 0.00 0.00 0.00 27 1021.5
20260506021100 80 298 4.3 11.3 0.00 0.00 0.00 26 1021.5
20260506020603 81 269 1.7 11.3 0.00 0.00 0.00 26 1021.5
20260506020318 81 279 2.6 9.6 0.00 0.00 0.00 25 1021.4
20260506015600 82 240 4.3 9.6 0.00 0.00 0.00 25 1021.3